Weather History for Mineral Point, WI

Change the Weather History Date:

Monday, December 31, 2012

  Actual Average (KLNR) Record (KLNR)
Temperature  
Mean Temperature 20 °F -  
Max Temperature 33 °F 27 °F 48 °F (2004)
Min Temperature 8 °F 12 °F -14 °F (2013)
Degree Days  
Heating Degree Days 44    
Moisture  
Dew Point 14 °F    
Average Humidity 75    
Maximum Humidity 86    
Minimum Humidity 63    
Precipitation  
Precipitation 0.00 in - - ()
Sea Level Pressure  
Sea Level Pressure 30.03 in    
Wind  
Wind Speed 11 mph (WNW)    
Max Wind Speed 18 mph    
Max Gust Speed 25 mph    
Visibility 10 miles    
Events      
Averages and records for this station are not official NWS values.
T = Trace of Precipitation, MM = Missing Value Source: NWS Daily Summary

Daily Weather History Graph

Daily Weather History Graph

Search for Another Location

Airport:

Trip Planner

Search our weather history database for the weather conditions in past years. The results will help you decide how hot, cold, wet, or windy it might be!

Date:

Astronomy

Dec. 31, 2012 Rise Set
Actual Time 7:31 AM CST 4:36 PM CST
Civil Twilight 6:59 AM CST 5:08 PM CST
Nautical Twilight 6:24 AM CST 5:44 PM CST
Astronomical Twilight 5:49 AM CST 6:19 PM CST
Moon 8:12 PM CST (12/31) 9:08 AM CST (12/31)
Length of Visible Light 10h 09m
Length of Day
9h 04m
Waning Gibbous, 90% of the Moon is Illuminated
Dec 31
Waning Gibbous
Jan 4
Last Quarter
Jan 11
New
Jan 18
First Quarter
Jan 26
Full

Hourly Weather History & Observations

Time (CST) Temp. Windchill Dew Point Humidity Pressure Visibility Wind Dir Wind Speed Gust Speed Precip Events Conditions
12:15 AM 33.8 °F 22.8 °F 24.8 °F 70% 29.92 in 10.0 mi SW 18.4 mph 23.0 mph N/A   Clear
12:35 AM 33.8 °F 23.2 °F 24.8 °F 70% 29.92 in 10.0 mi SW 17.3 mph - N/A   Clear
12:55 AM 33.8 °F 23.5 °F 24.8 °F 70% 29.92 in 10.0 mi WSW 16.1 mph 25.3 mph N/A   Clear
1:15 AM 33.8 °F 25.8 °F 24.8 °F 70% 29.92 in 10.0 mi WSW 10.4 mph - N/A   Clear
1:35 AM 32.0 °F 23.0 °F 24.8 °F 75% 29.92 in 10.0 mi WSW 11.5 mph - N/A   Clear
1:55 AM 32.0 °F 24.8 °F 24.8 °F 75% 29.93 in 10.0 mi WSW 8.1 mph - N/A   Clear
2:15 AM 32.0 °F 24.2 °F 23.0 °F 69% 29.94 in 10.0 mi WSW 9.2 mph - N/A   Clear
2:35 AM 32.0 °F 23.0 °F 23.0 °F 69% 29.94 in 10.0 mi WSW 11.5 mph - N/A   Clear
2:55 AM 30.2 °F 21.3 °F 23.0 °F 75% 29.94 in 10.0 mi WSW 10.4 mph - N/A   Clear
3:15 AM 30.2 °F 19.8 °F 23.0 °F 75% 29.95 in 10.0 mi WSW 13.8 mph - N/A   Clear
3:35 AM 30.2 °F 20.2 °F 23.0 °F 75% 29.96 in 10.0 mi WSW 12.7 mph - N/A   Clear
3:55 AM 30.2 °F 20.8 °F 23.0 °F 75% 29.97 in 10.0 mi West 11.5 mph - N/A   Clear
4:15 AM 28.4 °F 17.0 °F 23.0 °F 80% 29.96 in 10.0 mi West 15.0 mph - N/A   Clear
4:35 AM 28.4 °F 17.5 °F 21.2 °F 74% 29.96 in 10.0 mi West 13.8 mph - N/A   Clear
4:55 AM 26.6 °F 14.7 °F 21.2 °F 80% 29.97 in 10.0 mi West 15.0 mph - N/A   Clear
5:15 AM 26.6 °F 15.7 °F 21.2 °F 80% 29.97 in 10.0 mi West 12.7 mph - N/A   Clear
5:35 AM 24.8 °F 14.0 °F 19.4 °F 80% 29.98 in 10.0 mi West 11.5 mph - N/A   Clear
5:55 AM 23.0 °F 13.1 °F 19.4 °F 86% 29.98 in 10.0 mi West 9.2 mph - N/A   Clear
6:15 AM 23.0 °F 12.4 °F 19.4 °F 86% 29.99 in 10.0 mi West 10.4 mph - N/A   Clear
6:35 AM 23.0 °F 13.1 °F 17.6 °F 80% 30.00 in 10.0 mi WNW 9.2 mph - N/A   Clear
6:55 AM 21.2 °F 8.9 °F 17.6 °F 86% 29.99 in 10.0 mi West 12.7 mph - N/A   Clear
7:15 AM 21.2 °F 10.1 °F 17.6 °F 86% 30.00 in 10.0 mi WNW 10.4 mph - N/A   Clear
7:35 AM 21.2 °F 9.5 °F 15.8 °F 80% 30.00 in 10.0 mi West 11.5 mph - N/A   Clear
7:55 AM 21.2 °F 10.9 °F 15.8 °F 80% 30.00 in 10.0 mi WNW 9.2 mph - N/A   Clear
8:15 AM 19.4 °F 8.6 °F 14.0 °F 80% 30.00 in 10.0 mi WNW 9.2 mph - N/A   Clear
8:35 AM 19.4 °F 8.6 °F 14.0 °F 80% 30.01 in 10.0 mi WNW 9.2 mph - N/A   Clear
8:55 AM 21.2 °F 11.7 °F 15.8 °F 80% 30.02 in 10.0 mi WNW 8.1 mph - N/A   Clear
9:15 AM 21.2 °F 11.7 °F 15.8 °F 80% 30.02 in 10.0 mi WNW 8.1 mph - N/A   Clear
9:35 AM 21.2 °F 11.7 °F 15.8 °F 80% 30.03 in 10.0 mi WNW 8.1 mph - N/A   Mostly Cloudy
9:55 AM 21.2 °F 13.6 °F 15.8 °F 80% 30.04 in 10.0 mi NW 5.8 mph - N/A   Overcast
10:15 AM 21.2 °F 12.6 °F 15.8 °F 80% 30.05 in 10.0 mi NW 6.9 mph - N/A   Overcast
10:35 AM 21.2 °F 9.5 °F 15.8 °F 80% 30.04 in 10.0 mi NW 11.5 mph - N/A   Overcast
10:55 AM 21.2 °F 10.1 °F 17.6 °F 86% 30.04 in 10.0 mi WNW 10.4 mph 16.1 mph N/A   Overcast
11:15 AM 21.2 °F 10.9 °F 15.8 °F 80% 30.03 in 10.0 mi NW 9.2 mph 17.3 mph N/A   Overcast
11:35 AM 23.0 °F 13.9 °F 17.6 °F 80% 30.03 in 10.0 mi WNW 8.1 mph - N/A   Overcast
11:55 AM 23.0 °F 14.7 °F 17.6 °F 80% 30.04 in 10.0 mi NW 6.9 mph - N/A   Overcast
12:15 PM 23.0 °F 17.0 °F 17.6 °F 80% 30.04 in 7.0 mi NW 4.6 mph - N/A   Overcast
12:35 PM 23.0 °F 14.7 °F 17.6 °F 80% 30.04 in 7.0 mi WNW 6.9 mph - N/A   Overcast
12:55 PM 21.2 °F 13.6 °F 14.0 °F 74% 30.03 in 10.0 mi NW 5.8 mph - N/A   Overcast
1:15 PM 21.2 °F 12.6 °F 14.0 °F 74% 30.04 in 10.0 mi WNW 6.9 mph - N/A   Mostly Cloudy
1:35 PM 21.2 °F 11.7 °F 14.0 °F 74% 30.03 in 10.0 mi WNW 8.1 mph - N/A   Clear
1:55 PM 23.0 °F 14.7 °F 12.2 °F 63% 30.04 in 10.0 mi WNW 6.9 mph - N/A   Clear
2:15 PM 23.0 °F 12.4 °F 12.2 °F 63% 30.03 in 10.0 mi West 10.4 mph - N/A   Clear
2:35 PM 21.2 °F 12.6 °F 12.2 °F 68% 30.04 in 10.0 mi WNW 6.9 mph - N/A   Clear
2:55 PM 21.2 °F 13.6 °F 12.2 °F 68% 30.04 in 10.0 mi WNW 5.8 mph - N/A   Clear
3:15 PM 21.2 °F 12.6 °F 12.2 °F 68% 30.04 in 10.0 mi West 6.9 mph - N/A   Clear
3:35 PM 21.2 °F 13.6 °F 12.2 °F 68% 30.04 in 10.0 mi WNW 5.8 mph - N/A   Clear
3:55 PM 19.4 °F 11.5 °F 12.2 °F 74% 30.04 in 10.0 mi WNW 5.8 mph - N/A   Clear
4:15 PM 19.4 °F 10.4 °F 12.2 °F 74% 30.04 in 10.0 mi WNW 6.9 mph - N/A   Clear
4:35 PM 19.4 °F 10.4 °F 10.4 °F 68% 30.06 in 10.0 mi WNW 6.9 mph - N/A   Clear
4:55 PM 17.6 °F 10.7 °F 10.4 °F 73% 30.05 in 10.0 mi NW 4.6 mph - N/A   Clear
5:15 PM 17.6 °F 9.3 °F 10.4 °F 73% 30.05 in 10.0 mi NW 5.8 mph - N/A   Clear
5:35 PM 17.6 °F 10.7 °F 10.4 °F 73% 30.06 in 10.0 mi NW 4.6 mph - N/A   Clear
5:55 PM 17.6 °F 10.7 °F 10.4 °F 73% 30.07 in 10.0 mi NW 4.6 mph - N/A   Clear
6:15 PM 17.6 °F 8.2 °F 8.6 °F 68% 30.07 in 10.0 mi NNW 6.9 mph - N/A   Clear
6:35 PM 17.6 °F 6.4 °F 8.6 °F 68% 30.08 in 10.0 mi NNW 9.2 mph - N/A   Clear
6:55 PM 17.6 °F 9.3 °F 8.6 °F 68% 30.09 in 10.0 mi NNW 5.8 mph - N/A   Clear
7:15 PM 17.6 °F 8.2 °F 6.8 °F 63% 30.09 in 10.0 mi NNW 6.9 mph - N/A   Clear
7:35 PM 15.8 °F 5.1 °F 6.8 °F 68% 30.09 in 10.0 mi NNW 8.1 mph - N/A   Clear
7:55 PM 15.8 °F 5.1 °F 6.8 °F 68% 30.10 in 10.0 mi NNW 8.1 mph - N/A   Clear
8:15 PM 15.8 °F 5.1 °F 6.8 °F 68% 30.10 in 10.0 mi NNW 8.1 mph - N/A   Scattered Clouds
8:35 PM 14.0 °F 5.1 °F 5.0 °F 67% 30.10 in 10.0 mi North 5.8 mph - N/A   Scattered Clouds
8:55 PM 14.0 °F 6.5 °F 5.0 °F 67% 30.11 in 10.0 mi North 4.6 mph - N/A   Clear
9:15 PM 12.2 °F 2.9 °F 5.0 °F 73% 30.12 in 10.0 mi North 5.8 mph - N/A   Clear
9:35 PM 12.2 °F 4.3 °F 5.0 °F 73% 30.12 in 10.0 mi NNW 4.6 mph - N/A   Clear
9:55 PM 12.2 °F 2.9 °F 5.0 °F 73% 30.13 in 10.0 mi NNW 5.8 mph - N/A   Clear
10:15 PM 10.4 °F 2.2 °F 3.2 °F 73% 30.13 in 10.0 mi NNW 4.6 mph - N/A   Clear
10:35 PM 10.4 °F 2.2 °F 3.2 °F 73% 30.14 in 10.0 mi NW 4.6 mph - N/A   Clear
10:55 PM 10.4 °F -1.5 °F 3.2 °F 73% 30.14 in 10.0 mi NNW 8.1 mph - N/A   Clear
11:15 PM 8.6 °F -1.3 °F 3.2 °F 79% 30.15 in 10.0 mi NW 5.8 mph - N/A   Clear
11:35 PM 8.6 °F 0.1 °F 3.2 °F 79% 30.15 in 10.0 mi NW 4.6 mph - N/A   Clear
11:55 PM 8.6 °F -1.3 °F 3.2 °F 79% 30.15 in 10.0 mi NW 5.8 mph - N/A   Clear